Volver al catálogo

STARLINK-35785

ActivoComunicacionesVLEO
NORAD 67176·PAYLOAD·🇺🇸 United States

Lanzado Dec 17, 2025 desde Cape Canaveral Space Force Station

Loading…

Próximos Pases (próximas 24 horas)

TLE

ActualizadoSource: CelesTrak SupGP

Época: Sep 15, 2026, 02:44 UTC

1 67176C 25303P   26258.11437500  .00044817  00000+0  16229-2 0  2587
2 67176  43.0032 320.9649 0001573 264.4958 143.6603 15.27563135    10

Sigue STARLINK-35785 en tiempo real con AllMySat

Download on the App Store